UFO 2 (USA 95)

Last updated on Thu Jul 03 2025 00:02:44 GMT+0000 (Coordinated Universal Time)

1 22787U 93056A 25183.14404412 .00000123 00000+0 00000+0 0 9992 2 22787 11.7744 5.4263 0000758 328.7038 26.7746 1.00273313115035
UTC large
Height (km)
Speed (km/s)
/
Latitude / Longitude
Inclination (degrees)
Orbital Period (minutes)
Azimuth
Elevation
Range (km)
Doppler Factor

Next 0 passes for location: London (51.5072 / 0.1276)

Sorry there are no passes over London.